Weather History for Vancouver, BC

Change the Weather History Date:

Saturday, March 16, 2013

  Actual Average Record
Temperature  
Mean Temperature 44 °F -  
Max Temperature 50 °F 47 °F 51 °F (2003)
Min Temperature 39 °F 37 °F 28 °F (2002)
Degree Days  
Heating Degree Days 20    
Moisture  
Dew Point 39 °F    
Average Humidity 80    
Maximum Humidity 100    
Minimum Humidity 54    
Precipitation  
Precipitation 0.04 in - - ()
Sea Level Pressure  
Sea Level Pressure 29.94 in    
Wind  
Wind Speed 10 mph ()    
Max Wind Speed 26 mph    
Max Gust Speed 34 mph    
Visibility 16.6 miles    
Events Fog , Rain    
Averages and records for this station are not official NWS values.
T = Trace of Precipitation, MM = Missing Value Source: Averaged Metar Reports

Daily Weather History Graph

Daily Weather History Graph

Search for Another Location

Airport:

Trip Planner

Search our weather history database for the weather conditions in past years. The results will help you decide how hot, cold, wet, or windy it might be!

Date:

Astronomy

Mar. 16, 2013 Rise Set
Actual Time 7:23 AM PDT 7:20 PM PDT
Civil Twilight 6:51 AM PDT 7:51 PM PDT
Nautical Twilight 6:14 AM PDT 8:28 PM PDT
Astronomical Twilight 5:36 AM PDT 9:07 PM PDT
Moon 9:29 AM PDT (3/16) 12:03 AM PDT (3/16)
Length of Visible Light 13h 00m
Length of Day
11h 56m
Waxing Crescent, 24% of the Moon is Illuminated
Mar 16
Waxing Crescent
Mar 19
First Quarter
Mar 27
Full
Apr 2
Last Quarter
Apr 10
New

Hourly Weather History & Observations

Time (PDT) Temp. Windchill Dew Point Humidity Pressure Visibility Wind Dir Wind Speed Gust Speed Precip Events Conditions
12:00 AM 46.4 °F 42.4 °F 41.0 °F 81% 30.11 in 15.0 mi East 8.1 mph - N/A   Overcast
1:00 AM 48.2 °F - 41.0 °F 76% 30.10 in 15.0 mi ESE 4.6 mph - N/A   Mostly Cloudy
2:00 AM 42.8 °F 39.3 °F 37.4 °F 81% 30.09 in 8.0 mi East 5.8 mph - N/A Fog Shallow Fog
3:00 AM 41.0 °F 35.8 °F 37.4 °F 87% 30.08 in 10.0 mi East 8.1 mph - N/A Fog Shallow Fog
4:00 AM 42.8 °F 38.6 °F 37.4 °F 81% 30.06 in 15.0 mi East 6.9 mph - N/A   Mostly Cloudy
5:00 AM 43 °F - 38 °F 76% 30.04 in 15 mi East 9.2 mph - -   Scattered Clouds
5:00 AM 42.8 °F 38.0 °F 37.4 °F 81% 30.04 in 15.0 mi East 8.1 mph - N/A   Mostly Cloudy
5:13 AM 42.8 °F 38.6 °F - N/A% - 15.0 mi East 6.9 mph - N/A Rain Light Rain
5:37 AM 42.8 °F 38.0 °F - N/A% - 15.0 mi East 8.1 mph - N/A   Overcast
6:00 AM 42.8 °F 38.0 °F 37.4 °F 81% 30.02 in 15.0 mi East 8.1 mph - N/A   Overcast
6:06 AM 42.8 °F 38.0 °F - N/A% - 15.0 mi East 8.1 mph - N/A Rain Light Rain
7:00 AM 44.6 °F 42.2 °F 42.8 °F 93% 30.00 in 15.0 mi East 4.6 mph - N/A Rain Light Rain
8:00 AM 44.6 °F 42.2 °F 42.8 °F 93% 29.99 in 15.0 mi East 4.6 mph - N/A Rain Light Rain
9:00 AM 44.6 °F 39.7 °F 44.6 °F 100% 29.97 in 20.0 mi East 9.2 mph - N/A Rain Light Rain
10:00 AM 46.4 °F 42.4 °F 44.6 °F 93% 29.96 in 20.0 mi ESE 8.1 mph - N/A Rain Light Rain
11:00 AM 47 °F - 44 °F 87% 29.94 in 19 mi SE 9.2 mph - - Rain Light Rain
11:00 AM 46.4 °F 41.9 °F 44.6 °F 93% 29.94 in 20.0 mi SSE 9.2 mph - N/A Rain Light Rain
11:53 AM 48.2 °F - - N/A% - 20.0 mi ESE 10.4 mph - N/A   Mostly Cloudy
12:00 PM 48.2 °F - 44.6 °F 87% 29.91 in 20.0 mi SE 10.4 mph - N/A   Mostly Cloudy
1:00 PM 48.2 °F - 44.6 °F 87% 29.88 in 20.0 mi South 15.0 mph - N/A   Mostly Cloudy
1:32 PM 50.0 °F - - N/A% - 20.0 mi South 15.0 mph - N/A Rain Light Rain Showers
1:52 PM 48.2 °F - - N/A% - 20.0 mi SW 6.9 mph - N/A   Mostly Cloudy
2:00 PM 48.2 °F - 41.0 °F 76% 29.86 in 20.0 mi SW 5.8 mph - N/A   Mostly Cloudy
3:00 PM 50.0 °F - 35.6 °F 58% 29.83 in 20.0 mi West 10.4 mph 20.7 mph N/A   Mostly Cloudy
4:00 PM 48.2 °F - 39.2 °F 71% 29.83 in 20.0 mi WNW 19.6 mph 25.3 mph N/A   Mostly Cloudy
5:00 PM 48 °F - 37 °F 54% 29.82 in 19 mi WNW 13.8 mph - -   Partly Cloudy
5:00 PM 48.2 °F - 37.4 °F 66% 29.82 in 20.0 mi NW 15.0 mph 20.7 mph N/A   Mostly Cloudy
5:53 PM 46.4 °F 39.8 °F - N/A% - 20.0 mi West 16.1 mph 21.9 mph N/A Rain Light Rain Showers
6:00 PM 46.4 °F 38.5 °F 33.8 °F 62% 29.83 in 20.0 mi WNW 21.9 mph 27.6 mph N/A Rain Light Rain Showers
6:26 PM 42.8 °F 32.9 °F - N/A% - 15.0 mi WNW 26.5 mph 34.5 mph N/A Rain Light Rain Showers
7:00 PM 42.8 °F 32.9 °F 37.4 °F 81% 29.85 in 15.0 mi WNW 26.5 mph 32.2 mph N/A Rain Light Rain Showers
8:00 PM 41.0 °F 31.1 °F 37.4 °F 87% 29.87 in 15.0 mi West 23.0 mph 28.8 mph N/A Rain Light Rain Showers
8:53 PM 41.0 °F 30.9 °F - N/A% - 15.0 mi West 24.2 mph - N/A   Mostly Cloudy
9:00 PM 41.0 °F 30.9 °F 35.6 °F 81% 29.88 in 15.0 mi West 24.2 mph - N/A   Mostly Cloudy
10:00 PM 42.8 °F 34.5 °F 37.4 °F 81% 29.88 in 15.0 mi West 18.4 mph - N/A   Mostly Cloudy
10:18 PM 41.0 °F 31.4 °F - N/A% - 12.0 mi WNW 21.9 mph 32.2 mph N/A Rain Light Rain Showers
10:39 PM 41.0 °F 32.8 °F - N/A% - 15.0 mi West 16.1 mph 24.2 mph N/A   Mostly Cloudy
11:00 PM 42 °F - 37 °F 78% 29.89 in 15 mi West 17.3 mph - - Rain Light Rain Showers
11:00 PM 42.8 °F 34.8 °F 37.4 °F 81% 29.89 in 15.0 mi West 17.3 mph - N/A   Mostly Cloudy